20-07-2022, 00:00:00,    212,    1.9,   17.0,   0.00,   0.00, 1010.1,   81.3, -999.0
20-07-2022, 00:00:10,    199,    0.1,   16.9,   0.00,   0.00, 1010.0,   81.1, -999.0
20-07-2022, 00:00:20,    227,    1.7,   16.9,   0.00,   0.00, 1010.0,   81.3, -999.0
20-07-2022, 00:00:30,    192,    2.6,   16.9,   0.00,   0.00, 1010.0,   81.4, -999.0
20-07-2022, 00:00:40,    208,    0.4,   16.8,   0.00,   0.00, 1010.0,   81.3, -999.0
20-07-2022, 00:00:50,    221,    0.8,   17.0,   0.00,   0.00, 1010.1,   81.4, -999.0
20-07-2022, 00:01:00,    195,    0.9,   17.0,   0.00,   0.00, 1010.1,   81.5, -999.0
20-07-2022, 00:01:10,    159,    0.9,   17.0,   0.00,   0.00, 1010.1,   81.5, -999.0
20-07-2022, 00:01:20,    186,    1.6,   16.9,   0.00,   0.00, 1010.1,   81.5, -999.0
20-07-2022, 00:01:29,    186,    0.1,   16.9,   0.00,   0.00, 1010.0,   81.3, -999.0
20-07-2022, 00:01:40,    210,    0.3,   16.9,   0.00,   0.00, 1010.0,   81.3, -999.0
20-07-2022, 00:01:50,    192,    1.4,   17.0,   0.00,   0.00, 1010.1,   81.5, -999.0
20-07-2022, 00:01:59,    220,    1.4,   17.0,   0.00,   0.00, 1010.1,   81.5, -999.0
20-07-2022, 00:02:10,    219,    0.7,   16.9,   0.00,   0.00, 1010.0,   81.5, -999.0
20-07-2022, 00:02:19,    151,    0.8,   16.9,   0.00,   0.00, 1010.0,   81.4, -999.0
20-07-2022, 00:02:29,    196,    0.2,   16.9,   0.00,   0.00, 1010.0,   81.4, -999.0
20-07-2022, 00:02:39,    224,    1.4,   16.9,   0.00,   0.00, 1010.0,   81.4, -999.0
20-07-2022, 00:02:51,    173,    2.0,   17.0,   0.00,   0.00, 1010.1,   81.6, -999.0
20-07-2022, 00:02:59,    211,    1.2,   17.0,   0.00,   0.00, 1010.1,   81.6, -999.0
20-07-2022, 00:03:09,    211,    0.4,   17.0,   0.00,   0.00, 1010.0,   81.5, -999.0
20-07-2022, 00:03:19,    190,    1.9,   16.9,   0.00,   0.00, 1010.1,   81.6, -999.0
20-07-2022, 00:03:29,    237,    2.7,   16.9,   0.00,   0.00, 1010.1,   81.7, -999.0
20-07-2022, 00:03:39,    218,    1.1,   16.9,   0.00,   0.00, 1010.1,   81.6, -999.0
20-07-2022, 00:03:49,    219,    0.7,   16.9,   0.00,   0.00, 1010.0,   81.6, -999.0
20-07-2022, 00:03:59,    202,    1.0,   16.9,   0.00,   0.00, 1010.0,   81.7, -999.0
20-07-2022, 00:04:09,    226,    0.6,   16.9,   0.00,   0.00, 1010.0,   81.7, -999.0
20-07-2022, 00:04:19,    227,    0.0,   16.8,   0.00,   0.00, 1009.9,   81.5, -999.0
20-07-2022, 00:04:28,    200,    0.5,   16.9,   0.00,   0.00, 1009.9,   81.6, -999.0
20-07-2022, 00:04:39,    199,    0.5,   16.9,   0.00,   0.00, 1010.0,   81.8, -999.0
20-07-2022, 00:04:49,    210,    0.4,   17.0,   0.00,   0.00, 1010.0,   81.8, -999.0
20-07-2022, 00:04:58,    210,    0.2,   16.9,   0.00,   0.00, 1010.0,   81.8, -999.0
20-07-2022, 00:05:08,    210,    0.2,   16.9,   0.00,   0.00, 1010.0,   81.7, -999.0
20-07-2022, 00:05:18,    208,    0.0,   16.9,   0.00,   0.00, 1009.9,   81.4, -999.0
20-07-2022, 00:05:28,    204,    0.0,   16.9,   0.00,   0.00, 1009.9,   81.5, -999.0
20-07-2022, 00:05:38,    217,    0.1,   16.9,   0.00,   0.00, 1010.0,   81.6, -999.0
20-07-2022, 00:05:48,    209,    0.4,   17.0,   0.00,   0.00, 1010.1,   81.8, -999.0
20-07-2022, 00:05:58,    187,    0.5,   17.0,   0.00,   0.00, 1010.1,   81.8, -999.0
20-07-2022, 00:06:08,    210,    0.5,   16.9,   0.00,   0.00, 1010.1,   81.7, -999.0
20-07-2022, 00:06:18,    186,    0.6,   16.9,   0.00,   0.00, 1010.1,   81.6, -999.0
20-07-2022, 00:06:28,    166,    1.6,   16.9,   0.00,   0.00, 1010.1,   81.8, -999.0
20-07-2022, 00:06:38,    201,    0.7,   16.9,   0.00,   0.00, 1010.1,   81.7, -999.0
20-07-2022, 00:06:48,    215,    1.6,   16.9,   0.00,   0.00, 1010.2,   81.8, -999.0
20-07-2022, 00:06:58,    219,    1.1,   16.9,   0.00,   0.00, 1010.1,   81.9, -999.0
20-07-2022, 00:07:08,    213,    1.3,   17.0,   0.00,   0.00, 1010.1,   81.8, -999.0
20-07-2022, 00:07:18,    231,    0.9,   16.9,   0.00,   0.00, 1010.1,   81.7, -999.0
20-07-2022, 00:07:28,    214,    1.9,   17.0,   0.00,   0.00, 1010.2,   81.9, -999.0
20-07-2022, 00:07:37,    217,    2.0,   17.0,   0.00,   0.00, 1010.2,   81.8, -999.0
20-07-2022, 00:07:48,    229,    1.6,   16.9,   0.00,   0.00, 1010.1,   81.8, -999.0
20-07-2022, 00:07:57,    215,    1.1,   16.9,   0.00,   0.00, 1010.1,   81.8, -999.0
20-07-2022, 00:08:07,    211,    0.3,   16.9,   0.00,   0.00, 1010.1,   81.7, -999.0
20-07-2022, 00:08:18,    207,    0.3,   16.8,   0.00,   0.00, 1010.1,   81.8, -999.0
20-07-2022, 00:08:27,    200,    1.2,   16.9,   0.00,   0.00, 1010.1,   82.1, -999.0
20-07-2022, 00:08:37,    219,    0.8,   16.9,   0.00,   0.00, 1010.1,   81.9, -999.0
20-07-2022, 00:08:47,    148,    0.7,   16.9,   0.00,   0.00, 1010.1,   81.9, -999.0
20-07-2022, 00:08:57,    148,    0.2,   16.9,   0.00,   0.00, 1010.0,   81.8, -999.0
20-07-2022, 00:09:07,    218,    0.1,   16.9,   0.00,   0.00, 1010.0,   81.6, -999.0
20-07-2022, 00:09:17,    218,    0.5,   16.9,   0.00,   0.00, 1010.1,   81.9, -999.0
20-07-2022, 00:09:27,    218,    0.0,   16.9,   0.00,   0.00, 1010.0,   81.7, -999.0
20-07-2022, 00:09:37,    218,    0.0,   16.9,   0.00,   0.00, 1010.0,   81.6, -999.0
20-07-2022, 00:09:47,    220,    0.0,   16.9,   0.00,   0.00, 1010.0,   81.5, -999.0
20-07-2022, 00:09:57,    194,    0.2,   16.8,   0.00,   0.00, 1010.0,   81.6, -999.0
20-07-2022, 00:10:06,    180,    1.9,   17.0,   0.00,   0.00, 1010.2,   81.9, -999.0
20-07-2022, 00:10:17,    199,    2.5,   17.0,   0.00,   0.00, 1010.2,   81.8, -999.0
20-07-2022, 00:10:27,    191,    0.4,   16.9,   0.00,   0.00, 1010.1,   81.7, -999.0
20-07-2022, 00:10:36,    214,    1.4,   16.9,   0.00,   0.00, 1010.1,   81.7, -999.0
20-07-2022, 00:10:47,    196,    1.7,   17.0,   0.00,   0.00, 1010.2,   81.8, -999.0
20-07-2022, 00:10:56,    204,    0.8,   17.0,   0.00,   0.00, 1010.2,   81.8, -999.0
20-07-2022, 00:11:06,    173,    1.1,   17.0,   0.00,   0.00, 1010.1,   81.9, -999.0
20-07-2022, 00:11:16,    192,    0.6,   16.9,   0.00,   0.00, 1010.1,   81.9, -999.0
20-07-2022, 00:11:26,    197,    0.4,   16.9,   0.00,   0.00, 1010.2,   81.9, -999.0
20-07-2022, 00:11:36,    212,    0.7,   16.9,   0.00,   0.00, 1010.1,   81.9, -999.0
20-07-2022, 00:11:46,    197,    1.8,   17.0,   0.00,   0.00, 1010.2,   82.0, -999.0
20-07-2022, 00:11:56,    191,    0.5,   17.0,   0.00,   0.00, 1010.1,   81.9, -999.0
20-07-2022, 00:12:06,    197,    0.0,   16.9,   0.00,   0.00, 1010.1,   81.7, -999.0
20-07-2022, 00:12:16,    216,    0.9,   16.9,   0.00,   0.00, 1010.1,   81.9, -999.0
20-07-2022, 00:12:26,    202,    0.8,   17.0,   0.00,   0.00, 1010.1,   81.9, -999.0
20-07-2022, 00:12:36,    220,    1.1,   16.9,   0.00,   0.00, 1010.2,   81.9, -999.0
20-07-2022, 00:12:46,    217,    1.4,   16.9,   0.00,   0.00, 1010.2,   81.9, -999.0
20-07-2022, 00:12:56,    211,    1.4,   16.9,   0.00,   0.00, 1010.2,   81.8, -999.0
20-07-2022, 00:13:05,    196,    0.4,   16.9,   0.00,   0.00, 1010.2,   81.9, -999.0
20-07-2022, 00:13:16,    210,    0.0,   16.9,   0.00,   0.00, 1010.1,   81.8, -999.0
20-07-2022, 00:13:26,    210,    0.1,   16.8,   0.00,   0.00, 1010.1,   81.8, -999.0
20-07-2022, 00:13:35,    206,    0.5,   16.9,   0.00,   0.00, 1010.2,   82.1, -999.0
20-07-2022, 00:13:45,    206,    0.0,   16.9,   0.00,   0.00, 1010.0,   81.8, -999.0
20-07-2022, 00:13:56,    207,    0.0,   16.9,   0.00,   0.00, 1010.0,   81.7, -999.0
20-07-2022, 00:14:05,    212,    0.8,   16.9,   0.00,   0.00, 1010.1,   81.9, -999.0
20-07-2022, 00:14:15,    211,    0.0,   16.9,   0.00,   0.00, 1010.0,   81.7, -999.0
20-07-2022, 00:14:25,    212,    0.0,   16.9,   0.00,   0.00, 1010.0,   81.6, -999.0
20-07-2022, 00:14:35,    211,    0.6,   16.9,   0.00,   0.00, 1010.1,   81.7, -999.0
20-07-2022, 00:14:45,    211,    1.3,   17.0,   0.00,   0.00, 1010.2,   82.0, -999.0
20-07-2022, 00:14:55,    218,    0.6,   17.0,   0.00,   0.00, 1010.2,   81.9, -999.0
20-07-2022, 00:15:05,    218,    0.3,   16.9,   0.00,   0.00, 1010.1,   81.8, -999.0
20-07-2022, 00:15:15,    201,    0.1,   16.8,   0.00,   0.00, 1010.1,   81.8, -999.0
20-07-2022, 00:15:25,    203,    0.4,   16.9,   0.00,   0.00, 1010.2,   81.9, -999.0
20-07-2022, 00:15:35,    230,    0.2,   16.9,   0.00,   0.00, 1010.1,   81.7, -999.0
20-07-2022, 00:15:45,    200,    0.4,   16.9,   0.00,   0.00, 1010.1,   81.7, -999.0
20-07-2022, 00:15:55,    161,    0.6,   16.8,   0.00,   0.00, 1010.1,   81.8, -999.0
20-07-2022, 00:16:05,    219,    2.0,   17.0,   0.00,   0.00, 1010.2,   82.0, -999.0
20-07-2022, 00:16:14,    215,    2.7,   16.8,   0.00,   0.00, 1010.2,   81.9, -999.0
20-07-2022, 00:16:25,    197,    0.8,   16.9,   0.00,   0.00, 1010.1,   81.9, -999.0
20-07-2022, 00:16:34,    222,    0.7,   16.8,   0.00,   0.00, 1010.1,   81.8, -999.0
20-07-2022, 00:16:44,    223,    2.8,   16.9,   0.00,   0.00, 1010.2,   82.0, -999.0
20-07-2022, 00:16:54,    218,    1.6,   16.9,   0.00,   0.00, 1010.2,   82.0, -999.0
20-07-2022, 00:17:04,    195,    2.3,   16.8,   0.00,   0.00, 1010.2,   82.1, -999.0
20-07-2022, 00:17:14,    219,    0.8,   16.8,   0.00,   0.00, 1010.1,   82.1, -999.0
20-07-2022, 00:17:24,    199,    1.6,   16.8,   0.00,   0.00, 1010.2,   82.0, -999.0
20-07-2022, 00:17:34,    194,    1.0,   16.9,   0.00,   0.00, 1010.1,   82.1, -999.0
20-07-2022, 00:17:44,    194,    1.7,   16.8,   0.00,   0.00, 1010.2,   82.1, -999.0
20-07-2022, 00:17:54,    209,    0.7,   16.8,   0.00,   0.00, 1010.1,   82.2, -999.0
20-07-2022, 00:18:04,    210,    0.1,   16.7,   0.00,   0.00, 1010.0,   82.0, -999.0
20-07-2022, 00:18:14,    204,    0.7,   16.8,   0.00,   0.00, 1010.1,   82.2, -999.0
20-07-2022, 00:18:24,    232,    0.3,   16.7,   0.00,   0.00, 1010.1,   82.1, -999.0
20-07-2022, 00:18:34,    216,    1.0,   16.8,   0.00,   0.00, 1010.2,   82.2, -999.0
20-07-2022, 00:18:43,    214,    1.3,   16.8,   0.00,   0.00, 1010.1,   82.3, -999.0
20-07-2022, 00:18:54,    194,    1.9,   16.9,   0.00,   0.00, 1010.2,   82.3, -999.0
20-07-2022, 00:19:04,    227,    1.5,   16.9,   0.00,   0.00, 1010.2,   82.4, -999.0
20-07-2022, 00:19:13,    226,    0.4,   16.8,   0.00,   0.00, 1010.1,   82.2, -999.0
20-07-2022, 00:19:23,    198,    0.5,   16.8,   0.00,   0.00, 1010.1,   82.1, -999.0
20-07-2022, 00:19:33,    213,    0.6,   16.9,   0.00,   0.00, 1010.1,   82.3, -999.0
20-07-2022, 00:19:43,    208,    0.3,   16.8,   0.00,   0.00, 1010.1,   82.3, -999.0
20-07-2022, 00:19:53,    208,    0.0,   16.8,   0.00,   0.00, 1010.0,   82.1, -999.0
20-07-2022, 00:20:03,    207,    0.0,   16.8,   0.00,   0.00, 1010.0,   82.1, -999.0
20-07-2022, 00:20:13,    207,    0.0,   16.8,   0.00,   0.00, 1010.0,   82.1, -999.0
20-07-2022, 00:20:23,    208,    0.0,   16.8,   0.00,   0.00, 1010.0,   82.2, -999.0
20-07-2022, 00:20:33,    206,    0.1,   16.8,   0.00,   0.00, 1010.1,   82.3, -999.0
20-07-2022, 00:20:43,    203,    0.2,   16.8,   0.00,   0.00, 1010.0,   82.3, -999.0
20-07-2022, 00:20:53,    203,    0.1,   16.8,   0.00,   0.00, 1010.0,   82.3, -999.0
20-07-2022, 00:21:03,    202,    0.0,   16.8,   0.00,   0.00, 1010.0,   82.2, -999.0
20-07-2022, 00:21:13,    201,    0.2,   16.8,   0.00,   0.00, 1010.0,   82.4, -999.0
20-07-2022, 00:21:23,    197,    0.7,   16.9,   0.00,   0.00, 1010.1,   82.4, -999.0
20-07-2022, 00:21:33,    210,    0.2,   16.9,   0.00,   0.00, 1010.0,   82.4, -999.0
20-07-2022, 00:21:43,    205,    0.0,   16.9,   0.00,   0.00, 1010.0,   82.3, -999.0
20-07-2022, 00:21:52,    209,    0.0,   16.9,   0.00,   0.00, 1010.0,   82.3, -999.0
20-07-2022, 00:22:03,    198,    0.0,   16.8,   0.00,   0.00, 1010.0,   82.4, -999.0
20-07-2022, 00:22:12,    200,    0.4,   16.9,   0.00,   0.00, 1010.0,   82.4, -999.0
20-07-2022, 00:22:22,    206,    0.0,   16.9,   0.00,   0.00, 1009.9,   82.3, -999.0
20-07-2022, 00:22:33,    206,    0.4,   16.9,   0.00,   0.00, 1010.0,   82.3, -999.0
20-07-2022, 00:22:42,    206,    0.0,   16.9,   0.00,   0.00, 1009.9,   82.1, -999.0
20-07-2022, 00:22:52,    210,    0.0,   16.9,   0.00,   0.00, 1010.0,   82.2, -999.0
20-07-2022, 00:23:02,    198,    0.0,   16.9,   0.00,   0.00, 1010.0,   82.2, -999.0
20-07-2022, 00:23:12,    213,    0.6,   16.9,   0.00,   0.00, 1010.1,   82.4, -999.0
20-07-2022, 00:23:22,    208,    0.8,   17.0,   0.00,   0.00, 1010.1,   82.2, -999.0
20-07-2022, 00:23:32,    217,    0.5,   16.9,   0.00,   0.00, 1010.0,   82.2, -999.0
20-07-2022, 00:23:42,    216,    0.2,   16.9,   0.00,   0.00, 1010.0,   82.1, -999.0
20-07-2022, 00:23:52,    204,    1.6,   16.9,   0.00,   0.00, 1010.1,   82.3, -999.0
20-07-2022, 00:24:02,    212,    1.5,   16.9,   0.00,   0.00, 1010.1,   82.2, -999.0
20-07-2022, 00:24:12,    211,    0.2,   16.9,   0.00,   0.00, 1010.0,   82.2, -999.0
20-07-2022, 00:24:21,    211,    0.0,   16.9,   0.00,   0.00, 1010.1,   82.1, -999.0
20-07-2022, 00:24:32,    211,    0.0,   16.8,   0.00,   0.00, 1010.0,   82.0, -999.0
20-07-2022, 00:24:42,    211,    0.0,   16.8,   0.00,   0.00, 1010.0,   82.1, -999.0
20-07-2022, 00:24:51,    211,    0.0,   16.9,   0.00,   0.00, 1010.0,   82.2, -999.0
20-07-2022, 00:25:02,    209,    0.0,   16.9,   0.00,   0.00, 1010.0,   82.2, -999.0
20-07-2022, 00:25:11,    209,    0.0,   17.0,   0.00,   0.00, 1009.9,   82.2, -999.0
20-07-2022, 00:25:21,    208,    0.1,   17.0,   0.00,   0.00, 1010.0,   82.2, -999.0
20-07-2022, 00:25:31,    208,    0.0,   16.9,   0.00,   0.00, 1010.0,   82.0, -999.0
20-07-2022, 00:25:41,    211,    0.6,   17.0,   0.00,   0.00, 1010.1,   82.3, -999.0
20-07-2022, 00:25:51,    214,    0.7,   17.0,   0.00,   0.00, 1010.1,   82.3, -999.0
20-07-2022, 00:26:01,    214,    0.0,   16.9,   0.00,   0.00, 1010.0,   81.8, -999.0
20-07-2022, 00:26:11,    214,    0.0,   16.9,   0.00,   0.00, 1010.0,   82.0, -999.0
20-07-2022, 00:26:21,    214,    0.0,   16.9,   0.00,   0.00, 1010.0,   81.9, -999.0
20-07-2022, 00:26:31,    214,    0.0,   16.9,   0.00,   0.00, 1010.0,   81.9, -999.0
20-07-2022, 00:26:41,    214,    0.0,   16.9,   0.00,   0.00, 1010.0,   81.8, -999.0
20-07-2022, 00:26:51,    220,    0.6,   17.0,   0.00,   0.00, 1010.1,   82.1, -999.0
20-07-2022, 00:27:01,    205,    0.4,   17.0,   0.00,   0.00, 1010.1,   82.3, -999.0
20-07-2022, 00:27:11,    204,    0.1,   17.0,   0.00,   0.00, 1010.1,   82.0, -999.0
20-07-2022, 00:27:20,    197,    0.3,   16.8,   0.00,   0.00, 1010.1,   82.1, -999.0
20-07-2022, 00:27:31,    205,    0.3,   17.0,   0.00,   0.00, 1010.1,   82.2, -999.0
20-07-2022, 00:27:41,    211,    0.3,   16.9,   0.00,   0.00, 1010.1,   82.0, -999.0
20-07-2022, 00:27:50,    217,    0.4,   16.9,   0.00,   0.00, 1010.1,   82.0, -999.0
20-07-2022, 00:28:00,    216,    0.0,   16.9,   0.00,   0.00, 1010.0,   81.8, -999.0
20-07-2022, 00:28:11,    216,    0.0,   16.8,   0.00,   0.00, 1010.0,   81.8, -999.0
20-07-2022, 00:28:20,    216,    0.0,   16.8,   0.00,   0.00, 1009.9,   81.9, -999.0
20-07-2022, 00:28:30,    216,    0.0,   16.9,   0.00,   0.00, 1010.0,   81.7, -999.0
20-07-2022, 00:28:40,    216,    0.0,   16.9,   0.00,   0.00, 1010.0,   81.8, -999.0
20-07-2022, 00:28:50,    216,    0.0,   16.8,   0.00,   0.00, 1010.0,   81.8, -999.0
20-07-2022, 00:29:00,    216,    0.0,   16.9,   0.00,   0.00, 1010.0,   81.9, -999.0
20-07-2022, 00:29:10,    216,    0.0,   16.9,   0.00,   0.00, 1010.0,   81.8, -999.0
20-07-2022, 00:29:20,    206,    0.0,   16.9,   0.00,   0.00, 1010.0,   81.9, -999.0
20-07-2022, 00:29:30,    201,    0.5,   16.9,   0.00,   0.00, 1010.1,   82.2, -999.0
20-07-2022, 00:29:40,    200,    0.3,   16.9,   0.00,   0.00, 1010.1,   82.0, -999.0
20-07-2022, 00:29:50,    194,    0.4,   16.9,   0.00,   0.00, 1010.1,   82.1, -999.0
20-07-2022, 00:30:00,    166,    1.0,   16.9,   0.00,   0.00, 1010.2,   82.0, -999.0
20-07-2022, 00:30:10,    181,    0.2,   16.8,   0.00,   0.00, 1010.0,   81.9, -999.0
20-07-2022, 00:30:20,    182,    0.0,   16.8,   0.00,   0.00, 1010.0,   81.6, -999.0
20-07-2022, 00:30:29,    187,    0.0,   16.8,   0.00,   0.00, 1010.0,   81.7, -999.0
20-07-2022, 00:30:40,    191,    0.0,   16.8,   0.00,   0.00, 1010.0,   81.8, -999.0
20-07-2022, 00:30:49,    195,    0.3,   16.8,   0.00,   0.00, 1010.1,   82.1, -999.0
20-07-2022, 00:30:59,    163,    0.3,   16.8,   0.00,   0.00, 1010.1,   82.1, -999.0
20-07-2022, 00:31:09,    163,    0.5,   16.8,   0.00,   0.00, 1010.1,   82.3, -999.0
20-07-2022, 00:31:19,    163,    0.2,   16.8,   0.00,   0.00, 1010.0,   82.1, -999.0
20-07-2022, 00:31:29,    176,    0.0,   16.6,   0.00,   0.00, 1010.0,   82.0, -999.0
20-07-2022, 00:31:39,    165,    0.1,   16.8,   0.00,   0.00, 1010.1,   82.1, -999.0
20-07-2022, 00:31:49,    187,    0.3,   16.8,   0.00,   0.00, 1010.1,   82.4, -999.0
20-07-2022, 00:31:59,    218,    0.1,   16.9,   0.00,   0.00, 1010.1,   82.4, -999.0
20-07-2022, 00:32:09,    212,    0.0,   16.8,   0.00,   0.00, 1010.0,   82.2, -999.0
20-07-2022, 00:32:19,    201,    0.1,   16.8,   0.00,   0.00, 1010.1,   82.3, -999.0
20-07-2022, 00:32:29,    202,    0.0,   16.7,   0.00,   0.00, 1010.0,   81.9, -999.0
20-07-2022, 00:32:39,    205,    0.0,   16.7,   0.00,   0.00, 1010.0,   82.0, -999.0
20-07-2022, 00:32:49,    206,    0.9,   16.9,   0.00,   0.00, 1010.1,   82.3, -999.0
20-07-2022, 00:32:58,    211,    0.4,   16.8,   0.00,   0.00, 1010.1,   82.4, -999.0
20-07-2022, 00:33:09,    211,    0.1,   16.8,   0.00,   0.00, 1010.1,   82.2, -999.0
20-07-2022, 00:33:19,    213,    0.0,   16.7,   0.00,   0.00, 1010.0,   82.2, -999.0
20-07-2022, 00:33:28,    212,    0.7,   16.8,   0.00,   0.00, 1010.1,   82.4, -999.0
20-07-2022, 00:33:39,    220,    1.7,   16.9,   0.00,   0.00, 1010.1,   82.6, -999.0
20-07-2022, 00:33:48,    222,    0.3,   16.8,   0.00,   0.00, 1010.1,   82.5, -999.0
20-07-2022, 00:33:58,    218,    0.0,   16.7,   0.00,   0.00, 1010.0,   82.2, -999.0
20-07-2022, 00:34:08,    219,    0.0,   16.7,   0.00,   0.00, 1010.0,   82.1, -999.0
20-07-2022, 00:34:18,    218,    0.0,   16.7,   0.00,   0.00, 1010.0,   82.2, -999.0
20-07-2022, 00:34:28,    218,    0.0,   16.7,   0.00,   0.00, 1010.0,   82.2, -999.0
20-07-2022, 00:34:38,    218,    0.0,   16.7,   0.00,   0.00, 1010.0,   82.2, -999.0
20-07-2022, 00:34:48,    218,    0.0,   16.7,   0.00,   0.00, 1010.0,   82.2, -999.0
20-07-2022, 00:34:58,    225,    0.5,   16.7,   0.00,   0.00, 1010.1,   82.4, -999.0
20-07-2022, 00:35:08,    218,    1.5,   16.8,   0.00,   0.00, 1010.1,   82.7, -999.0
20-07-2022, 00:35:18,    213,    0.3,   16.8,   0.00,   0.00, 1010.1,   82.5, -999.0
20-07-2022, 00:35:28,    202,    0.3,   16.8,   0.00,   0.00, 1010.1,   82.5, -999.0
20-07-2022, 00:35:38,    228,    1.1,   16.9,   0.00,   0.00, 1010.1,   82.7, -999.0
20-07-2022, 00:35:48,    219,    0.1,   16.8,   0.00,   0.00, 1010.0,   82.4, -999.0
20-07-2022, 00:35:57,    216,    0.0,   16.7,   0.00,   0.00, 1010.0,   82.2, -999.0
20-07-2022, 00:36:08,    216,    0.0,   16.7,   0.00,   0.00, 1010.0,   82.3, -999.0
20-07-2022, 00:36:18,    212,    0.0,   16.7,   0.00,   0.00, 1010.0,   82.4, -999.0
20-07-2022, 00:36:27,    222,    0.5,   16.8,   0.00,   0.00, 1010.0,   82.7, -999.0
20-07-2022, 00:36:37,    222,    0.5,   16.8,   0.00,   0.00, 1010.1,   82.7, -999.0
20-07-2022, 00:36:48,    207,    0.2,   16.8,   0.00,   0.00, 1010.0,   82.7, -999.0
20-07-2022, 00:36:57,    214,    0.0,   16.7,   0.00,   0.00, 1010.0,   82.5, -999.0
20-07-2022, 00:37:07,    211,    0.5,   16.8,   0.00,   0.00, 1010.1,   82.7, -999.0
20-07-2022, 00:37:17,    203,    0.1,   16.7,   0.00,   0.00, 1010.0,   82.5, -999.0
20-07-2022, 00:37:27,    203,    0.2,   16.8,   0.00,   0.00, 1010.0,   82.6, -999.0
20-07-2022, 00:37:37,    203,    0.1,   16.8,   0.00,   0.00, 1010.0,   82.5, -999.0
20-07-2022, 00:37:47,    202,    0.6,   16.8,   0.00,   0.00, 1010.1,   82.8, -999.0
20-07-2022, 00:37:57,    202,    0.1,   16.7,   0.00,   0.00, 1010.0,   82.5, -999.0
20-07-2022, 00:38:07,    202,    0.0,   16.7,   0.00,   0.00, 1009.9,   82.5, -999.0
20-07-2022, 00:38:17,    202,    0.0,   16.6,   0.00,   0.00, 1010.0,   82.4, -999.0
20-07-2022, 00:38:27,    209,    0.0,   16.7,   0.00,   0.00, 1009.9,   82.5, -999.0
20-07-2022, 00:38:37,    186,    0.5,   16.9,   0.00,   0.00, 1010.1,   82.9, -999.0
20-07-2022, 00:38:47,    192,    0.2,   17.0,   0.00,   0.00, 1010.1,   82.8, -999.0
20-07-2022, 00:38:57,    223,    1.2,   16.8,   0.00,   0.00, 1010.1,   83.0, -999.0
20-07-2022, 00:39:06,    231,    2.7,   16.8,   0.00,   0.00, 1010.1,   82.9, -999.0
20-07-2022, 00:39:17,    223,    1.0,   16.8,   0.00,   0.00, 1010.1,   82.8, -999.0
20-07-2022, 00:39:26,    223,    0.1,   16.7,   0.00,   0.00, 1010.0,   82.6, -999.0
20-07-2022, 00:39:36,    183,    0.3,   16.8,   0.00,   0.00, 1010.1,   82.8, -999.0
20-07-2022, 00:39:46,    180,    0.8,   16.9,   0.00,   0.00, 1010.1,   82.9, -999.0
20-07-2022, 00:39:56,    192,    0.4,   16.8,   0.00,   0.00, 1010.1,   82.8, -999.0
20-07-2022, 00:40:06,    199,    0.1,   16.7,   0.00,   0.00, 1010.1,   82.8, -999.0
20-07-2022, 00:40:16,    199,    0.0,   16.8,   0.00,   0.00, 1010.0,   82.6, -999.0
20-07-2022, 00:40:26,    213,    0.0,   16.7,   0.00,   0.00, 1010.0,   82.7, -999.0
20-07-2022, 00:40:36,    214,    0.4,   16.8,   0.00,   0.00, 1010.1,   83.1, -999.0
20-07-2022, 00:40:46,    219,    0.5,   16.8,   0.00,   0.00, 1010.1,   82.9, -999.0
20-07-2022, 00:40:56,    219,    0.0,   16.7,   0.00,   0.00, 1010.0,   82.8, -999.0
20-07-2022, 00:41:06,    219,    0.0,   16.6,   0.00,   0.00, 1010.0,   82.7, -999.0
20-07-2022, 00:41:16,    219,    0.0,   16.7,   0.00,   0.00, 1010.0,   82.6, -999.0
20-07-2022, 00:41:26,    219,    0.0,   16.8,   0.00,   0.00, 1010.0,   82.6, -999.0
20-07-2022, 00:41:35,    212,    0.6,   16.8,   0.00,   0.00, 1010.1,   82.8, -999.0
20-07-2022, 00:41:46,    212,    0.9,   16.8,   0.00,   0.00, 1010.1,   83.0, -999.0
20-07-2022, 00:41:56,    212,    0.1,   16.8,   0.00,   0.00, 1010.1,   82.9, -999.0
20-07-2022, 00:42:05,    212,    0.0,   16.8,   0.00,   0.00, 1010.0,   82.7, -999.0
20-07-2022, 00:42:15,    213,    0.0,   16.7,   0.00,   0.00, 1010.1,   82.9, -999.0
20-07-2022, 00:42:25,    206,    0.0,   16.7,   0.00,   0.00, 1010.0,   82.8, -999.0
20-07-2022, 00:42:35,    205,    0.0,   16.8,   0.00,   0.00, 1010.1,   82.7, -999.0
20-07-2022, 00:42:45,    187,    1.8,   16.8,   0.00,   0.00, 1010.2,   83.1, -999.0
20-07-2022, 00:42:55,    196,    0.5,   16.8,   0.00,   0.00, 1010.1,   82.9, -999.0
20-07-2022, 00:43:05,    216,    0.1,   16.7,   0.00,   0.00, 1010.1,   82.8, -999.0
20-07-2022, 00:43:15,    220,    0.3,   16.7,   0.00,   0.00, 1010.1,   83.0, -999.0
20-07-2022, 00:43:25,    204,    0.7,   16.8,   0.00,   0.00, 1010.2,   83.1, -999.0
20-07-2022, 00:43:35,    203,    0.0,   16.7,   0.00,   0.00, 1010.1,   83.0, -999.0
20-07-2022, 00:43:45,    136,    0.0,   16.7,   0.00,   0.00, 1010.1,   82.8, -999.0
20-07-2022, 00:43:55,    156,    0.9,   16.8,   0.00,   0.00, 1010.2,   83.2, -999.0
20-07-2022, 00:44:05,    156,    0.0,   16.8,   0.00,   0.00, 1010.1,   82.7, -999.0
20-07-2022, 00:44:15,    228,    0.1,   16.7,   0.00,   0.00, 1010.1,   82.9, -999.0
20-07-2022, 00:44:25,    228,    0.5,   16.8,   0.00,   0.00, 1010.2,   83.1, -999.0
20-07-2022, 00:44:34,    216,    0.9,   16.8,   0.00,   0.00, 1010.2,   83.1, -999.0
20-07-2022, 00:44:44,    212,    0.4,   16.7,   0.00,   0.00, 1010.2,   83.1, -999.0
20-07-2022, 00:44:55,    211,    0.2,   16.8,   0.00,   0.00, 1010.2,   83.1, -999.0
20-07-2022, 00:45:04,    218,    0.1,   16.8,   0.00,   0.00, 1010.1,   83.0, -999.0
20-07-2022, 00:45:14,    217,    0.0,   16.8,   0.00,   0.00, 1010.1,   82.8, -999.0
20-07-2022, 00:45:25,    218,    0.0,   16.7,   0.00,   0.00, 1010.1,   82.8, -999.0
20-07-2022, 00:45:34,    218,    0.0,   16.7,   0.00,   0.00, 1010.1,   82.8, -999.0
20-07-2022, 00:45:44,    188,    0.0,   16.8,   0.00,   0.00, 1010.1,   82.8, -999.0
20-07-2022, 00:45:54,    190,    0.5,   16.9,   0.00,   0.00, 1010.3,   83.2, -999.0
20-07-2022, 00:46:04,    188,    0.0,   16.8,   0.00,   0.00, 1010.2,   82.9, -999.0
20-07-2022, 00:46:14,    186,    0.0,   16.8,   0.00,   0.00, 1010.1,   82.9, -999.0
20-07-2022, 00:46:24,    188,    0.1,   16.8,   0.00,   0.00, 1010.2,   83.0, -999.0
20-07-2022, 00:46:34,    188,    0.0,   16.8,   0.00,   0.00, 1010.2,   82.9, -999.0